Regional Weather Roundup
Issued by NWS

Home | Current Version | Previous Version | Text Only | Print | Product List | Glossary On
Versions: 1 2 3 4 5 6 7 8 9 10 11 12 13 14 15 16 17 18 19 20 21 22 23 24 25 26 27 28 29 30 31 32 33 34 35 36 37 38 39 40 41 42 43 44 45 46 47 48 49 50
000
ASUS44 KFWD 190315
RWRTX
NORTH TEXAS HOURLY WEATHER ROUNDUP
NATIONAL WEATHER SERVICE FORT WORTH TX
1000 PM CDT WED OCT 18 2017

NOTE: "FAIR" INDICATES FEW OR NO CLOUDS BELOW 12,000 FEET WITH NO
SIGNIFICANT WEATHER AND/OR OBSTRUCTIONS TO VISIBILITY.

TXZ118-119-190400-
DALLAS/FORT WORTH METROPLEX

CITY           SKY/WX    TMP DP  RH WIND       PRES   REMARKS
DFW AIRPORT    MOCLDY    66  46  48 SE8       30.09R
DALLAS LOVE    MOCLDY    69  45  41 SE9       30.10R
FTW MEACHAM    PTCLDY    69  42  37 SE10      30.09R
DAL-EXECUTIVE  PTCLDY    64  47  53 SE6       30.10S
FTW-ALLIANCE   CLOUDY    65  43  44 SE7       30.09R
FTW-NAS-JRB    CLOUDY   N/A N/A N/A SE7       30.09S
FTW-SPINKS     CLEAR     61  41  48 SE6       30.12R
ARLINGTON      CLEAR     54  48  80 SE3       30.10S
GRAND PRAIRIE  CLOUDY    68  44  42 SE7       30.12R
MESQUITE       PTCLDY    61  44  54 CALM      30.11S
LANCASTER      PTCLDY    62  44  52 CALM      30.12R
$$

TXZ091>094-102>105-117-120-121-131>134-190400-
NORTH CENTRAL TEXAS

CITY           SKY/WX    TMP DP  RH WIND       PRES   REMARKS
SHRMAN/DENISON CLOUDY    65  44  47 SE10      30.11S
GAINESVILLE    CLOUDY    62  45  54 SE9       30.11S
BOWIE          PTCLDY    64  44  47 SE7       30.08R
BRIDGEPORT     MOCLDY    67  41  37 SE10      30.09S
DECATUR        PTCLDY    69  39  33 SE8       30.08S
DENTON         PTCLDY    61  46  57 SE7       30.09S
MCKINNEY       CLOUDY    58  49  72 SE3       30.11S
BONHAM         CLOUDY    62  45  53 SE7       30.12S
GREENVILLE     CLOUDY    61  46  59 CALM      30.12F
ROCKWALL       CLOUDY    65  44  46 SE7       30.11S
TERRELL        CLOUDY    63  43  48 CALM      30.12R
WAXAHACHIE     CLOUDY    65  46  51 SE3       30.12S
CLEBURNE       PTCLDY    64  41  42 S7        30.12R
GRANBURY       CLEAR     65  46  50 SE3       30.11R
$$

TXZ083>090-098>101-113>116-127>130-139>142-154-155-190400-
WESTERN NORTH TEXAS

CITY           SKY/WX    TMP DP  RH WIND       PRES   REMARKS
WICHITA FALLS  CLOUDY    59  47  64 SE7       30.05S
WF-KICKAPOO    CLOUDY    63  47  57 SE7       30.08S
VERNON         PTCLDY    69  36  30 SE13      30.04S
ABILENE        CLOUDY    68  40  35 SE15      30.06S
ABILENE-DYESS  PTCLDY    67  44  41 SE12      30.05R
GRAHAM         PTCLDY    69  43  38 SE7       30.05R
BRECKENRIDGE   CLEAR     71  39  31 SE15G21   30.06R
CISCO          PTCLDY    66  43  42 S12       30.09S
EASTLAND       CLOUDY    64  43  45 SE7       30.09R
RANGER         CLOUDY    66  43  43 S8        30.09R
MINERAL WELLS  PTCLDY    65  43  44 SE13      30.07R
STEPHENVILLE   PTCLDY    65  42  42 SE5       30.12S
COMANCHE       PTCLDY    64  45  50 S8        30.10S
COLEMAN        CLOUDY    65  38  36 S5        30.09R
$$

TXZ143>147-156>162-174-175-190400-
CENTRAL TEXAS

CITY           SKY/WX    TMP DP  RH WIND       PRES   REMARKS
WACO           PTCLDY    67  44  43 S9        30.10S
WACO-TSTC      CLEAR     63  41  45 SE3       30.11R
WACO-MCGREGOR  PTCLDY    62  42  47 S9        30.11R
HILLSBORO      CLEAR     66  41  39 SE8       30.11S
CORSICANA      CLOUDY    63  49  60 SE7       30.12
MEXIA          PTCLDY    63  45  51 SE7       30.11S
HEARNE         CLEAR     62  50  65 E3        30.13R
CAMERON        CLOUDY    66  49  54 SE3       30.12R
TEMPLE         PTCLDY    67  46  47 SE6       30.12R
KILLEEN        CLOUDY    63  46  53 SE5       30.11R
KILLEEN-SKYLRK CLOUDY    68  47  46 SE8       30.12R
FORT HOOD      PTCLDY    66  46  48 SE6       30.09R
GATESVILLE     CLOUDY    63  45  51 CALM      30.13R
HAMILTON       PTCLDY    64  45  49 S8        30.12S
LAMPASAS       CLOUDY    69  51  51 S6        30.11R
$$

TXZ095>097-106>112-122>126-135>138-148>153-164>167-190400-
EAST TEXAS

CITY           SKY/WX    TMP DP  RH WIND       PRES   REMARKS
PARIS          CLOUDY    59  46  62 SE7       30.13S
SULPHUR SPRNGS CLOUDY    61  46  58 SE5       30.14S
MOUNT PLEASANT CLEAR     57  52  82 SE5       30.15R
GILMER         CLOUDY    61  50  68 S3        30.14S
MINEOLA        PTCLDY    54  48  82 CALM      30.13S
TYLER          CLOUDY    62  49  62 SE7       30.13S
LONGVIEW       CLEAR     64  32  30 SE8       30.14S
MARSHALL       CLEAR     55  50  81 CALM      30.17S
ATHENS         PTCLDY    54  48  82 CALM      30.11S
PALESTINE      CLOUDY    65  53  66 E5        30.14S
JACKSONVILLE   CLOUDY    68  55  62 SE3       30.16S
HENDERSON      CLEAR     58  50  75 CALM      30.16S
CENTER         CLEAR     61  58  91 CALM      30.16S
NACOGDOCHES    CLEAR     56  53  90 CALM      30.15S
LUFKIN         CLEAR     62  57  83 E3        30.14R
$$

SUPPLEMENTAL OBSERVATIONS (NWS FORT WORTH AREA)

CITY           SKY/WX    TMP DP  RH WIND       PRES   REMARKS
DENISON DAM      N/A     63  50  63 E1          N/A
CADDO GRASSLND   N/A     57  50  77 S3          N/A
PAT MAYSE LAKE   N/A     66  45  45 SE8         N/A
GREENVILLE       N/A     61  45  55 E1          N/A
CEDAR HILL       N/A     66  45  45 SE7         N/A
LBJ GRASSLAND    N/A     72  37  28 SE12        N/A
POSSUM KINGDOM   N/A     70  43  37 SE9         N/A
GRANBURY         N/A     66  45  45 SE5         N/A
MCGREGOR         N/A     68  41  37 SE8         N/A
TEMPLE           N/A     64  45  48 E3          N/A
ATHENS           N/A     64  50  59 SE3         N/A
$$

SUPPLEMENTAL OBSERVATIONS (NWS NORMAN AREA)

CITY           SKY/WX    TMP DP  RH WIND       PRES   REMARKS
GOODLETT         N/A     63  40  42 SE8       30.02S
ODELL            N/A     68  43  41 SE12      30.05S
CROWELL          N/A     63  43  48 SE9       30.05R
KNOX CITY        N/A     67  38  33 SE10      30.05R
SEYMOUR          N/A     70  40  33 SE14      30.05R
MILLERS CREEK    N/A     68  41  37 SE12        N/A
$$

SUPPLEMENTAL OBSERVATIONS (NWS SAN ANGELO AREA)

CITY           SKY/WX    TMP DP  RH WIND       PRES   REMARKS
WEINERT          N/A     67  40  37 SE8       30.06R
HASKELL          N/A     68  37  31 SE8       30.05R
THROCKMORTON     N/A     65  42  43 SE9       30.07R
STAMFORD         N/A     64  41  43 SE7       30.06R
CLYDE            N/A     66  42  40 S13       30.09S
HAMBY            N/A     70  37  30 SE8         N/A
IVIE RESERVOIR   N/A     66  39  37 SE9         N/A
COLORADO BEND    N/A     68  46  45 S7          N/A
$$

SUPPLEMENTAL OBSERVATIONS (NWS SHREVEPORT AREA)

CITY           SKY/WX    TMP DP  RH WIND       PRES   REMARKS
CLARKSVILLE      N/A     63  45  51 SE3         N/A
TEXARKANA        N/A     54  50  87 CALM        N/A
LINDEN           N/A     64  52  63 E1          N/A
GILMER           N/A     57  50  77 CALM        N/A
HENDERSON        N/A     57  48  72 E2          N/A
LUFKIN           N/A     61  57  88 MISG        N/A
N SABINE NF      N/A     55  52  88 MISG        N/A
S SABINE NF      N/A     57  55  94 CALM        N/A
$$

SUPPLEMENTAL OBSERVATIONS ARE A COLLECTION OF AUTOMATED INSTRUMENTS
THAT ARE MAINTAINED BY A VARIETY OF FEDERAL AND STATE AGENCIES.
CERTAIN ELEMENTS...SUCH AS HUMIDITY VALUES AND SUSTAINED WIND
SPEEDS...MAY BE APPROXIMATED.





USA.gov is the U.S. government's official web portal to all federal, state and local government web resources and services.